| time (UTC) | temp C | wind direction | speed KPH | gust KPH | rain 1hr cm | rain 24hr cm | rain mn cm | humidity % | barometer mb |
| 20260903091528 | 14 | 248 | 0.0 | 0.0 | 0.00 | 0.00 | 0.00 | 67 | 1003.6 |
| 20260903090026 | 15 | 248 | 0.0 | 0.0 | 0.00 | 0.00 | 0.00 | 65 | 1003.5 |
| 20260903084523 | 15 | 248 | 0.0 | 0.0 | 0.00 | 0.00 | 0.00 | 66 | 1003.4 |
| 20260903083020 | 15 | 248 | 0.0 | 0.0 | 0.00 | 0.00 | 0.00 | 64 | 1003.5 |
| 20260903081520 | 15 | 248 | 0.0 | 0.0 | 0.00 | 0.00 | 0.00 | 65 | 1003.4 |
| 20260903080017 | 15 | 248 | 0.0 | 0.0 | 0.00 | 0.00 | 0.00 | 63 | 1003.3 |
| 20260903074515 | 16 | 221 | 0.0 | 0.0 | 0.00 | 0.00 | 0.00 | 66 | 1003.4 |
| 20260903073011 | 16 | 221 | 0.0 | 0.0 | 0.00 | 0.00 | 0.00 | 67 | 1003.6 |
| 20260903071508 | 17 | 221 | 0.0 | 0.0 | 0.00 | 0.00 | 0.00 | 66 | 1003.6 |
| 20260903070013 | 17 | 221 | 0.0 | 0.0 | 0.00 | 0.00 | 0.00 | 65 | 1003.8 |
| 20260903064503 | 17 | 221 | 0.0 | 0.0 | 0.00 | 0.00 | 0.00 | 64 | 1004.0 |
| 20260903063000 | 17 | 218 | 0.0 | 0.0 | 0.00 | 0.00 | 0.00 | 64 | 1004.0 |
| 20260903061608 | 17 | 206 | 0.0 | 0.0 | 0.00 | 0.00 | 0.00 | 64 | 1004.0 |
| 20260903060058 | 18 | 206 | 0.0 | 0.0 | 0.00 | 0.00 | 0.00 | 64 | 1003.9 |
| 20260903054602 | 18 | 206 | 0.0 | 0.0 | 0.00 | 0.00 | 0.00 | 63 | 1004.0 |
| 20260903053056 | 18 | 206 | 0.0 | 0.0 | 0.00 | 0.00 | 0.00 | 63 | 1003.8 |
| 20260903051556 | 18 | 192 | 0.0 | 0.0 | 0.00 | 0.00 | 0.00 | 62 | 1003.7 |
| 20260903050154 | 18 | 192 | 0.0 | 0.0 | 0.00 | 0.00 | 0.00 | 63 | 1003.6 |
| 20260903044558 | 18 | 61 | 0.0 | 0.0 | 0.00 | 0.00 | 0.00 | 63 | 1003.6 |
| 20260903043054 | 18 | 61 | 0.0 | 0.0 | 0.00 | 0.00 | 0.00 | 61 | 1004.5 |
| 20260903041609 | 19 | 61 | 0.0 | 0.0 | 0.00 | 0.00 | 0.00 | 57 | 1004.3 |
| 20260903040053 | 19 | 61 | 0.0 | 0.0 | 0.00 | 0.00 | 0.00 | 56 | 1004.4 |
| 20260903034552 | 20 | 61 | 0.0 | 0.0 | 0.00 | 0.00 | 0.00 | 55 | 1004.2 |
| 20260903033052 | 21 | 62 | 0.0 | 0.0 | 0.00 | 0.00 | 0.00 | 51 | 1004.2 |
| 20260903031551 | 21 | 62 | 0.0 | 0.0 | 0.00 | 0.00 | 0.00 | 48 | 1004.0 |
| 20260903030051 | 22 | 62 | 0.0 | 0.0 | 0.00 | 0.00 | 0.00 | 47 | 1003.8 |
| 20260903024551 | 23 | 315 | 0.0 | 0.0 | 0.00 | 0.00 | 0.00 | 45 | 1003.8 |
| 20260903023050 | 23 | 340 | 0.0 | 0.0 | 0.00 | 0.00 | 0.00 | 42 | 1003.9 |
| 20260903021551 | 23 | 5 | 0.0 | 0.0 | 0.00 | 0.00 | 0.00 | 39 | 1002.8 |
| 20260903020053 | 24 | 5 | 0.0 | 0.0 | 0.00 | 0.00 | 0.00 | 38 | 1002.6 |
| 20260903014610 | 24 | 316 | 0.0 | 0.0 | 0.00 | 0.00 | 0.00 | 36 | 1002.5 |
| 20260903013100 | 25 | 24 | 0.0 | 0.0 | 0.00 | 0.00 | 0.00 | 34 | 1002.3 |
| 20260903011613 | 25 | 348 | 0.0 | 0.0 | 0.00 | 0.00 | 0.00 | 34 | 1002.3 |
| 20260903010104 | 26 | 317 | 0.0 | 0.0 | 0.00 | 0.00 | 0.00 | 32 | 1002.1 |
| 20260903004547 | 26 | 11 | 0.0 | 0.0 | 0.00 | 0.00 | 0.00 | 31 | 1002.1 |
| 20260903003103 | 27 | 346 | 0.0 | 0.0 | 0.00 | 0.00 | 0.00 | 30 | 1002.0 |
| 20260903001556 | 28 | 283 | 0.0 | 9.7 | 0.00 | 0.00 | 0.00 | 29 | 1002.0 |
| 20260903000048 | 28 | 337 | 1.6 | 14.5 | 0.00 | 0.00 | 0.00 | 27 | 1002.0 |
| 20260902234546 | 29 | 5 | 0.0 | 14.5 | 0.00 | 0.00 | 0.00 | 26 | 1001.9 |
| 20260902233045 | 28 | 248 | 0.0 | 22.5 | 0.00 | 0.00 | 0.00 | 26 | 1002.1 |
| 20260902231548 | 28 | 351 | 3.2 | 17.7 | 0.00 | 0.00 | 0.00 | 28 | 1002.2 |
| 20260902230053 | 28 | 303 | 6.4 | 20.9 | 0.00 | 0.00 | 0.00 | 26 | 1002.2 |
| 20260902223045 | 31 | 194 | 0.0 | 0.0 | 0.00 | 0.00 | 0.00 | 23 | 1002.2 |
| 20260902221542 | 31 | 105 | 0.0 | 3.2 | 0.00 | 0.00 | 0.00 | 22 | 1001.8 |
| 20260902220043 | 32 | 128 | 0.0 | 6.4 | 0.00 | 0.00 | 0.00 | 22 | 1001.8 |
| 20260902214543 | 32 | 114 | 0.0 | 4.8 | 0.00 | 0.03 | 0.00 | 22 | 1002.2 |
| 20260902213037 | 32 | 84 | 0.0 | 4.8 | 0.00 | 0.03 | 0.00 | 21 | 1002.4 |
| 20260902211535 | 32 | 175 | 1.6 | 12.9 | 0.00 | 0.03 | 0.00 | 21 | 1002.7 |
| 20260902210033 | 32 | 120 | 0.0 | 12.9 | 0.00 | 0.03 | 0.00 | 21 | 1002.9 |
| 20260902204529 | 31 | 98 | 0.0 | 11.3 | 0.00 | 0.03 | 0.00 | 21 | 1003.2 |
| 20260902203028 | 31 | 5 | 0.0 | 11.3 | 0.00 | 0.03 | 0.00 | 22 | 1003.5 |
| 20260902201525 | 31 | 90 | 0.0 | 16.1 | 0.00 | 0.03 | 0.00 | 23 | 1003.7 |
| 20260902200025 | 30 | 81 | 0.0 | 8.0 | 0.00 | 0.03 | 0.00 | 24 | 1004.1 |
| 20260902194534 | 30 | 69 | 1.6 | 12.9 | 0.00 | 0.03 | 0.00 | 23 | 1004.4 |
| 20260902193016 | 30 | 100 | 0.0 | 11.3 | 0.00 | 0.03 | 0.00 | 24 | 1004.5 |
| 20260902191514 | 30 | 91 | 0.0 | 16.1 | 0.00 | 0.03 | 0.00 | 25 | 1004.8 |
| 20260902190011 | 29 | 92 | 0.0 | 12.9 | 0.00 | 0.03 | 0.00 | 26 | 1005.0 |
| 20260902184509 | 30 | 99 | 0.0 | 14.5 | 0.00 | 0.03 | 0.00 | 26 | 1005.2 |
| 20260902183006 | 29 | 88 | 0.0 | 6.4 | 0.00 | 0.03 | 0.00 | 26 | 1005.3 |
| 20260902181503 | 29 | 69 | 1.6 | 12.9 | 0.00 | 0.03 | 0.00 | 26 | 1005.8 |
| 20260902180001 | 28 | 65 | 0.0 | 11.3 | 0.00 | 0.03 | 0.00 | 28 | 1005.9 |
| 20260902174604 | 28 | 59 | 0.0 | 11.3 | 0.00 | 0.03 | 0.00 | 26 | 1006.3 |
| 20260902173058 | 28 | 87 | 0.0 | 8.0 | 0.00 | 0.03 | 0.00 | 31 | 1006.4 |
| 20260902171557 | 27 | 105 | 0.0 | 8.0 | 0.00 | 0.03 | 0.00 | 30 | 1006.5 |
| 20260902170051 | 27 | 99 | 0.0 | 12.9 | 0.00 | 0.03 | 0.00 | 33 | 1006.6 |
| 20260902164552 | 26 | 107 | 0.0 | 11.3 | 0.00 | 0.03 | 0.00 | 34 | 1006.9 |
| 20260902163045 | 26 | 123 | 0.0 | 8.0 | 0.00 | 0.03 | 0.00 | 37 | 1006.9 |
| 20260902161542 | 25 | 128 | 0.0 | 6.4 | 0.00 | 0.03 | 0.00 | 39 | 1007.0 |
| 20260902160037 | 24 | 125 | 0.0 | 8.0 | 0.00 | 0.03 | 0.00 | 40 | 1007.3 |
| 20260902154534 | 23 | 168 | 0.0 | 3.2 | 0.00 | 0.03 | 0.00 | 44 | 1007.2 |
| 20260902153129 | 22 | 105 | 0.0 | 4.8 | 0.00 | 0.03 | 0.00 | 47 | 1007.3 |
| 20260902151529 | 21 | 109 | 0.0 | 3.2 | 0.00 | 0.03 | 0.00 | 50 | 1007.2 |
| 20260902150022 | 20 | 153 | 0.0 | 0.0 | 0.00 | 0.03 | 0.00 | 52 | 1007.4 |
| 20260902144519 | 19 | 154 | 0.0 | 0.0 | 0.00 | 0.03 | 0.00 | 53 | 1007.3 |
| 20260902143016 | 17 | 157 | 0.0 | 0.0 | 0.00 | 0.03 | 0.00 | 59 | 1007.3 |
| 20260902141515 | 16 | 168 | 0.0 | 1.6 | 0.00 | 0.03 | 0.00 | 62 | 1007.5 |
| 20260902140016 | 14 | 192 | 0.0 | 0.0 | 0.00 | 0.03 | 0.00 | 69 | 1007.5 |
| 20260902134524 | 13 | 192 | 0.0 | 0.0 | 0.00 | 0.03 | 0.00 | 71 | 1007.6 |
| 20260902133013 | 12 | 192 | 0.0 | 0.0 | 0.00 | 0.03 | 0.00 | 73 | 1007.6 |
| 20260902131511 | 12 | 256 | 0.0 | 8.0 | 0.00 | 0.03 | 0.00 | 72 | 1007.0 |
| 20260902130010 | 12 | 275 | 0.0 | 0.0 | 0.00 | 0.03 | 0.00 | 72 | 1007.0 |
| 20260902124510 | 12 | 296 | 0.0 | 4.8 | 0.00 | 0.03 | 0.00 | 71 | 1006.8 |
| 20260902123006 | 12 | 302 | 0.0 | 0.0 | 0.00 | 0.03 | 0.00 | 69 | 1006.8 |
| 20260902121506 | 12 | 302 | 0.0 | 0.0 | 0.00 | 0.03 | 0.00 | 69 | 1006.7 |
| 20260902120002 | 13 | 309 | 0.0 | 0.0 | 0.00 | 0.03 | 0.00 | 68 | 1006.6 |
| 20260902114559 | 13 | 309 | 0.0 | 0.0 | 0.00 | 0.03 | 0.00 | 68 | 1006.3 |
| 20260902113100 | 13 | 191 | 0.0 | 4.8 | 0.00 | 0.03 | 0.00 | 67 | 1006.4 |
| 20260902111555 | 13 | 254 | 0.0 | 0.0 | 0.00 | 0.03 | 0.00 | 66 | 1006.4 |
| 20260902110100 | 13 | 254 | 0.0 | 0.0 | 0.00 | 0.03 | 0.00 | 65 | 1006.4 |
| 20260902104616 | 13 | 254 | 0.0 | 0.0 | 0.00 | 0.03 | 0.00 | 66 | 1006.2 |
| 20260902103052 | 13 | 254 | 0.0 | 0.0 | 0.00 | 0.03 | 0.00 | 66 | 1006.2 |
| 20260902101551 | 13 | 254 | 0.0 | 0.0 | 0.00 | 0.03 | 0.00 | 65 | 1006.2 |
| 20260902100108 | 13 | 254 | 0.0 | 0.0 | 0.00 | 0.03 | 0.00 | 65 | 1006.1 |
| 20260902094549 | 13 | 254 | 0.0 | 0.0 | 0.00 | 0.03 | 0.00 | 64 | 1006.3 |
| 20260902093050 | 14 | 254 | 0.0 | 0.0 | 0.00 | 0.03 | 0.00 | 64 | 1006.3 |